Location: Unspecified
(0.0000°N, 0.0000°E)
Time: 12:34:02
(UTC+00:00)

SL-12 DEB - Pass Details

Date: 08 May 2025
Orbit: 905 x 18020 km, 65.1° (Epoch: 09 July)

Event Time Altitude Azimuth Distance (km) Brightness Sun altitude
Rises 20:08:19 0° 336° (NNW) 23,157 ? -31.3°
Reaches altitude 10° 20:42:17 10° 333° (NNW) 22,461 ? -39.2°
Maximum altitude 22:32:05 37° 274° (W) 9,980 ? -62.9°
Enters shadow 22:54:27 20° 217° (SW) 6,511 ? -66.9°
